User: anonymous   Login
Location: Saint-Denis
(20.8800°S, 55.4481°E)
Time: 00:11:01
(UTC+04:00)
Language:

OPS 4682 DEB - Orbit

View from above orbital plane
View from above orbital plane
View from above satellite
View from above satellite

Ground track
Ground track

The orbit data is extracted from the following two-line orbital elements,

1 26733U 65027BG  24057.29975630  .00000266  00000-0  93394-3 0  9995
2 26733  90.2493 347.7301 0032311 272.9673 242.8405 12.94043284 88100
Epoch (UTC): 26 February 2024 07:11:38
Eccentricity: 0.0032311
inclination: 90.2493°
perigee height: 1261 km
apogee height: 1310 km
right ascension of ascending node: 347.7301°
argument of perigee: 272.9673°
revolutions per day: 12.94043284
mean anomaly at epoch: 242.8405°
orbit number at epoch: 8810

The dashed part of the orbit path shows where the satellite is in the earth's shadow,  

DLR